QPF
0.00 0.00 0.01 0.01 0.01 0.01 0.01 0.03 0.04 0.04 0.05 0.05 0.04 0.02 0.01 0.01 0.00 0.00 0.00 0.00 0.00 0.01 0.01 0.01 0.01 0.01 0.02 0.02 0.02 0.02 0.02 0.01 0.01 0.01 0.01 0.01 0.01 0.01 0.01 0.01 0.02 0.02 0.02
0.00 0.00 0.00 0.00 0.01 0.01 0.01 0.02 0.03 0.04 0.04 0.05 0.06 0.06 0.04 0.02 0.01 0.00 0.00 0.00 0.00 0.01 0.01 0.01 0.01 0.02 0.02 0.02 0.02 0.02 0.02 0.01 0.01 0.02 0.02 0.02 0.02 0.02 0.02 0.02 0.01 0.02 0.02
0.00 0.00 0.00 0.00 0.01 0.00 0.00 0.01 0.02 0.03 0.03 0.03 0.04 0.05 0.06 0.05 0.02 0.02 0.01 0.00 0.00 0.01 0.01 0.01 0.01 0.02 0.02 0.03 0.02 0.02 0.02 0.02 0.01 0.01 0.02 0.02 0.02 0.02 0.03 0.03 0.02 0.02 0.02
0.00 0.00 0.00 0.00 0.00 0.00 0.00 0.00 0.01 0.02 0.02 0.02 0.02 0.02 0.03 0.03 0.02 0.01 0.01 0.01 0.00 0.00 0.00 0.01 0.01 0.01 0.02 0.02 0.02 0.02 0.01 0.01 0.02 0.01 0.01 0.01 0.02 0.02 0.02 0.03 0.03 0.03 0.03
0.01 0.01 0.01 0.01 0.01 0.00 0.00 0.00 0.00 0.01 0.01 0.02 0.03 0.02 0.03 0.03 0.02 0.01 0.01 0.00 0.00 0.00 0.01 0.01 0.01 0.01 0.01 0.02 0.02 0.01 0.01 0.01 0.01 0.01 0.01 0.01 0.02 0.02 0.02 0.02 0.03 0.03 0.03
0.00 0.00 0.00 0.00 0.01 0.01 0.01 0.01 0.01 0.01 0.01 0.01 0.02 0.02 0.02 0.03 0.03 0.01 0.01 0.00 0.00 0.01 0.01 0.01 0.01 0.01 0.01 0.01 0.01 0.01 0.01 0.01 0.01 0.01 0.02 0.02 0.02 0.02 0.02 0.02 0.03 0.03 0.04
0.00 0.00 0.00 0.00 0.00 0.01 0.01 0.01 0.01 0.01 0.01 0.02 0.02 0.03 0.02 0.02 0.03 0.03 0.01 0.01 0.01 0.01 0.01 0.01 0.01 0.01 0.01 0.01 0.01 0.01 0.01 0.02 0.02 0.02 0.02 0.02 0.02 0.02 0.02 0.02 0.02 0.02 0.03
0.01 0.00 0.00 0.00 0.00 0.01 0.01 0.01 0.02 0.02 0.02 0.01 0.01 0.02 0.02 0.02 0.02 0.03 0.02 0.01 0.01 0.01 0.01 0.01 0.01 0.01 0.01 0.01 0.01 0.01 0.01 0.02 0.03 0.02 0.02 0.02 0.02 0.02 0.03 0.02 0.02 0.02 0.03
0.02 0.01 0.00 0.00 0.00 0.01 0.01 0.01 0.02 0.02 0.03 0.03 0.02 0.02 0.02 0.02 0.01 0.01 0.02 0.01 0.01 0.02 0.01 0.01 0.01 0.01 0.01 0.01 0.01 0.01 0.01 0.01 0.02 0.02 0.02 0.01 0.02 0.02 0.03 0.03 0.03 0.03 0.03
0.10 0.04 0.01 0.01 0.00 0.01 0.01 0.01 0.01 0.02 0.02 0.02 0.02 0.02 0.02 0.02 0.02 0.01 0.01 0.01 0.02 0.02 0.02 0.02 0.01 0.01 0.01 0.01 0.01 0.01 0.01 0.01 0.01 0.02 0.02 0.02 0.02 0.02 0.03 0.03 0.03 0.03 0.03
0.16 0.13 0.07 0.03 0.02 0.01 0.01 0.01 0.01 0.02 0.02 0.02 0.02 0.02 0.02 0.03 0.03 0.03 0.02 0.02 0.03 0.03 0.02 0.02 0.02 0.01 0.01 0.01 0.01 0.01 0.01 0.01 0.01 0.01 0.01 0.01 0.02 0.02 0.02 0.02 0.03 0.03 0.03
0.04 0.08 0.11 0.10 0.07 0.03 0.01 0.01 0.02 0.02 0.03 0.03 0.03 0.02 0.02 0.02 0.03 0.03 0.04 0.03 0.03 0.03 0.03 0.02 0.02 0.02 0.02 0.02 0.01 0.01 0.01 0.01 0.01 0.01 0.01 0.01 0.01 0.01 0.01 0.02 0.02 0.02 0.03
0.01 0.02 0.03 0.05 0.08 0.08 0.05 0.03 0.03 0.02 0.03 0.03 0.03 0.03 0.03 0.03 0.03 0.04 0.05 0.06 0.05 0.04 0.04 0.04 0.02 0.02 0.01 0.02 0.02 0.01 0.01 0.01 0.01 0.01 0.01 0.01 0.01 0.01 0.01 0.02 0.02 0.03 0.03
0.01 0.01 0.02 0.03 0.03 0.04 0.05 0.05 0.04 0.03 0.03 0.04 0.04 0.03 0.03 0.03 0.03 0.04 0.04 0.06 0.06 0.05 0.04 0.04 0.03 0.03 0.02 0.01 0.01 0.01 0.01 0.01 0.01 0.01 0.01 0.01 0.01 0.01 0.01 0.02 0.03 0.03 0.03
0.01 0.01 0.01 0.01 0.02 0.03 0.03 0.03 0.03 0.03 0.03 0.03 0.03 0.03 0.03 0.03 0.03 0.03 0.03 0.04 0.05 0.05 0.04 0.03 0.03 0.03 0.02 0.02 0.01 0.01 0.01 0.01 0.01 0.01 0.01 0.01 0.02 0.01 0.01 0.02 0.03 0.04 0.04
0.01 0.01 0.00 0.00 0.01 0.01 0.02 0.03 0.03 0.03 0.03 0.03 0.02 0.02 0.02 0.02 0.02 0.02 0.02 0.02 0.03 0.04 0.04 0.02 0.02 0.02 0.02 0.02 0.01 0.01 0.01 0.01 0.01 0.01 0.02 0.02 0.01 0.02 0.02 0.02 0.03 0.04 0.04
0.01 0.00 0.00 0.00 0.00 0.00 0.01 0.01 0.01 0.01 0.02 0.02 0.02 0.02 0.02 0.02 0.02 0.02 0.02 0.02 0.02 0.03 0.04 0.03 0.02 0.02 0.02 0.01 0.01 0.01 0.01 0.01 0.01 0.01 0.02 0.01 0.01 0.02 0.02 0.02 0.02 0.04 0.05
0.01 0.00 0.00 0.00 0.00 0.00 0.00 0.00 0.00 0.00 0.01 0.01 0.01 0.01 0.01 0.01 0.01 0.02 0.02 0.02 0.02 0.02 0.03 0.04 0.04 0.02 0.02 0.02 0.01 0.01 0.01 0.01 0.01 0.01 0.01 0.01 0.01 0.02 0.03 0.03 0.02 0.03 0.05
0.00 0.00 0.00 0.00 0.00 0.00 0.00 0.00 0.00 0.01 0.01 0.01 0.01 0.01 0.01 0.01 0.01 0.01 0.01 0.01 0.02 0.02 0.02 0.03 0.04 0.03 0.02 0.02 0.02 0.01 0.01 0.01 0.00 0.00 0.01 0.01 0.02 0.02 0.03 0.02 0.02 0.03 0.05
0.00 0.00 0.00 0.00 0.00 0.00 0.00 0.00 0.01 0.01 0.00 0.00 0.01 0.01 0.01 0.01 0.01 0.01 0.01 0.01 0.01 0.01 0.02 0.03 0.04 0.04 0.03 0.02 0.02 0.01 0.01 0.01 0.01 0.01 0.01 0.02 0.02 0.03 0.03 0.02 0.03 0.04 0.07
0.00 0.00 0.00 0.00 0.00 0.00 0.00 0.01 0.01 0.00 0.00 0.00 0.01 0.01 0.01 0.01 0.01 0.01 0.02 0.01 0.01 0.01 0.02 0.03 0.03 0.04 0.03 0.02 0.02 0.02 0.02 0.01 0.01 0.02 0.02 0.02 0.03 0.03 0.04 0.04 0.04 0.04 0.06
0.00 0.00 0.00 0.00 0.00 0.00 0.01 0.01 0.01 0.01 0.01 0.00 0.00 0.01 0.01 0.01 0.01 0.01 0.02 0.02 0.01 0.01 0.02 0.02 0.02 0.02 0.02 0.01 0.01 0.02 0.02 0.02 0.02 0.02 0.03 0.03 0.04 0.04 0.04 0.03 0.02 0.03 0.04
0.00 0.00 0.00 0.00 0.00 0.00 0.01 0.01 0.01 0.01 0.01 0.01 0.01 0.01 0.02 0.02 0.01 0.01 0.02 0.02 0.02 0.02 0.01 0.01 0.02 0.01 0.01 0.01 0.01 0.02 0.03 0.03 0.03 0.03 0.03 0.04 0.03 0.04 0.04 0.03 0.03 0.03 0.03
0.00 0.00 0.00 0.00 0.00 0.01 0.01 0.01 0.01 0.01 0.01 0.01 0.01 0.01 0.02 0.02 0.01 0.01 0.02 0.02 0.02 0.02 0.02 0.01 0.01 0.01 0.01 0.01 0.02 0.03 0.03 0.04 0.03 0.03 0.03 0.03 0.03 0.04 0.03 0.03 0.04 0.03 0.04
0.00 0.00 0.00 0.00 0.00 0.01 0.01 0.01 0.01 0.01 0.01 0.01 0.01 0.01 0.02 0.01 0.01 0.01 0.01 0.02 0.02 0.03 0.04 0.03 0.02 0.02 0.02 0.02 0.03 0.04 0.04 0.04 0.03 0.03 0.02 0.03 0.03 0.03 0.03 0.04 0.04 0.04 0.04
0.00 0.00 0.00 0.00 0.00 0.01 0.02 0.02 0.02 0.01 0.01 0.01 0.01 0.01 0.02 0.02 0.02 0.01 0.01 0.02 0.02 0.02 0.03 0.04 0.05 0.05 0.04 0.03 0.03 0.03 0.03 0.04 0.03 0.03 0.03 0.03 0.03 0.03 0.04 0.04 0.03 0.03 0.03
MSLP
1016.60 1016.48 1016.29 1016.04 1015.73 1015.38 1015.01 1014.62 1014.25 1013.92 1013.68 1013.53 1013.49 1013.57 1013.76 1014.04 1014.38 1014.75 1015.13 1015.51 1015.88 1016.25 1016.62 1017.01 1017.44 1017.90 1018.39 1018.89 1019.40 1019.87 1020.29 1020.65 1020.93 1021.14 1021.28 1021.37 1021.40 1021.39 1021.34 1021.25 1021.13 1020.97 1020.77
1016.84 1016.72 1016.54 1016.30 1016.01 1015.68 1015.32 1014.94 1014.58 1014.25 1013.98 1013.80 1013.72 1013.75 1013.88 1014.10 1014.40 1014.74 1015.11 1015.49 1015.88 1016.27 1016.68 1017.12 1017.58 1018.06 1018.57 1019.07 1019.57 1020.03 1020.44 1020.79 1021.08 1021.30 1021.47 1021.58 1021.64 1021.65 1021.62 1021.54 1021.42 1021.25 1021.05
1017.02 1016.92 1016.77 1016.57 1016.32 1016.02 1015.69 1015.33 1014.97 1014.62 1014.33 1014.09 1013.95 1013.90 1013.95 1014.10 1014.32 1014.61 1014.96 1015.34 1015.75 1016.19 1016.66 1017.15 1017.67 1018.20 1018.73 1019.25 1019.74 1020.19 1020.58 1020.92 1021.20 1021.43 1021.61 1021.75 1021.84 1021.88 1021.87 1021.81 1021.70 1021.54 1021.33
1017.13 1017.08 1016.98 1016.84 1016.64 1016.39 1016.10 1015.77 1015.41 1015.05 1014.71 1014.42 1014.19 1014.05 1014.00 1014.04 1014.17 1014.40 1014.70 1015.06 1015.50 1015.99 1016.52 1017.09 1017.68 1018.28 1018.86 1019.40 1019.89 1020.33 1020.70 1021.02 1021.29 1021.52 1021.71 1021.87 1021.98 1022.06 1022.08 1022.05 1021.96 1021.81 1021.61
1017.16 1017.18 1017.16 1017.09 1016.97 1016.79 1016.55 1016.25 1015.90 1015.53 1015.15 1014.79 1014.48 1014.23 1014.06 1013.99 1014.01 1014.14 1014.38 1014.72 1015.16 1015.68 1016.28 1016.93 1017.60 1018.27 1018.90 1019.48 1019.99 1020.42 1020.79 1021.09 1021.35 1021.57 1021.77 1021.94 1022.09 1022.19 1022.25 1022.25 1022.19 1022.06 1021.88
1017.14 1017.24 1017.30 1017.33 1017.29 1017.18 1017.00 1016.74 1016.42 1016.04 1015.64 1015.23 1014.84 1014.49 1014.21 1014.01 1013.92 1013.94 1014.10 1014.38 1014.80 1015.34 1015.98 1016.69 1017.43 1018.17 1018.86 1019.48 1020.01 1020.46 1020.82 1021.11 1021.36 1021.59 1021.80 1021.99 1022.16 1022.31 1022.40 1022.43 1022.40 1022.29 1022.13
1017.07 1017.25 1017.41 1017.52 1017.57 1017.54 1017.42 1017.22 1016.93 1016.58 1016.17 1015.74 1015.30 1014.88 1014.51 1014.20 1013.98 1013.89 1013.94 1014.14 1014.50 1015.01 1015.66 1016.40 1017.19 1017.98 1018.72 1019.39 1019.96 1020.42 1020.80 1021.11 1021.37 1021.60 1021.83 1022.05 1022.25 1022.43 1022.56 1022.62 1022.61 1022.53 1022.38
1016.96 1017.21 1017.45 1017.64 1017.77 1017.82 1017.78 1017.64 1017.41 1017.11 1016.74 1016.33 1015.88 1015.43 1014.99 1014.60 1014.27 1014.06 1013.98 1014.07 1014.33 1014.78 1015.38 1016.10 1016.90 1017.72 1018.50 1019.21 1019.83 1020.33 1020.74 1021.08 1021.37 1021.64 1021.90 1022.15 1022.38 1022.59 1022.75 1022.84 1022.84 1022.78 1022.64
1016.80 1017.11 1017.41 1017.67 1017.86 1017.98 1018.01 1017.96 1017.82 1017.60 1017.31 1016.96 1016.56 1016.12 1015.67 1015.21 1014.80 1014.47 1014.26 1014.21 1014.34 1014.67 1015.18 1015.85 1016.61 1017.43 1018.23 1018.98 1019.64 1020.20 1020.67 1021.06 1021.41 1021.72 1022.02 1022.31 1022.58 1022.81 1022.99 1023.10 1023.12 1023.07 1022.93
1016.58 1016.93 1017.27 1017.57 1017.82 1018.00 1018.11 1018.14 1018.10 1017.99 1017.82 1017.58 1017.27 1016.90 1016.47 1016.00 1015.52 1015.09 1014.75 1014.55 1014.53 1014.71 1015.09 1015.65 1016.35 1017.13 1017.94 1018.71 1019.42 1020.05 1020.59 1021.06 1021.48 1021.86 1022.21 1022.55 1022.85 1023.10 1023.29 1023.41 1023.44 1023.39 1023.26
1016.29 1016.67 1017.03 1017.36 1017.64 1017.87 1018.04 1018.16 1018.23 1018.25 1018.21 1018.12 1017.94 1017.67 1017.30 1016.85 1016.35 1015.84 1015.38 1015.04 1014.85 1014.87 1015.10 1015.54 1016.15 1016.88 1017.66 1018.46 1019.22 1019.92 1020.55 1021.11 1021.60 1022.05 1022.47 1022.84 1023.17 1023.44 1023.63 1023.75 1023.78 1023.72 1023.59
1015.93 1016.32 1016.69 1017.03 1017.33 1017.59 1017.82 1018.01 1018.19 1018.34 1018.45 1018.51 1018.47 1018.33 1018.06 1017.66 1017.16 1016.61 1016.06 1015.59 1015.26 1015.12 1015.21 1015.51 1016.02 1016.69 1017.45 1018.27 1019.07 1019.84 1020.56 1021.20 1021.78 1022.30 1022.77 1023.17 1023.52 1023.79 1023.98 1024.08 1024.10 1024.05 1023.92
1015.50 1015.90 1016.27 1016.61 1016.92 1017.20 1017.47 1017.73 1018.00 1018.26 1018.51 1018.70 1018.81 1018.80 1018.63 1018.31 1017.85 1017.29 1016.69 1016.13 1015.69 1015.43 1015.39 1015.58 1016.00 1016.60 1017.35 1018.17 1019.02 1019.85 1020.64 1021.36 1022.01 1022.59 1023.09 1023.52 1023.86 1024.12 1024.30 1024.39 1024.40 1024.34 1024.22
1015.01 1015.40 1015.77 1016.12 1016.43 1016.73 1017.02 1017.33 1017.67 1018.02 1018.36 1018.68 1018.91 1019.02 1018.96 1018.73 1018.33 1017.79 1017.19 1016.60 1016.09 1015.75 1015.62 1015.73 1016.08 1016.65 1017.37 1018.20 1019.08 1019.96 1020.81 1021.59 1022.29 1022.90 1023.42 1023.85 1024.19 1024.43 1024.59 1024.65 1024.65 1024.59 1024.48
1014.46 1014.86 1015.24 1015.59 1015.91 1016.21 1016.53 1016.86 1017.23 1017.63 1018.04 1018.44 1018.76 1018.97 1019.01 1018.87 1018.55 1018.08 1017.51 1016.93 1016.42 1016.05 1015.89 1015.96 1016.28 1016.82 1017.53 1018.37 1019.28 1020.19 1021.07 1021.89 1022.62 1023.24 1023.77 1024.18 1024.50 1024.71 1024.84 1024.88 1024.86 1024.80 1024.71
1013.88 1014.29 1014.68 1015.04 1015.37 1015.69 1016.00 1016.34 1016.71 1017.13 1017.57 1018.01 1018.38 1018.66 1018.79 1018.74 1018.52 1018.13 1017.65 1017.13 1016.66 1016.33 1016.17 1016.24 1016.56 1017.10 1017.82 1018.67 1019.58 1020.52 1021.42 1022.25 1022.99 1023.61 1024.12 1024.51 1024.80 1024.98 1025.07 1025.10 1025.07 1025.01 1024.93
1013.28 1013.71 1014.12 1014.50 1014.84 1015.16 1015.47 1015.79 1016.15 1016.55 1016.98 1017.42 1017.83 1018.15 1018.34 1018.38 1018.25 1017.97 1017.60 1017.18 1016.80 1016.53 1016.43 1016.54 1016.88 1017.44 1018.17 1019.03 1019.96 1020.91 1021.82 1022.65 1023.39 1024.00 1024.49 1024.85 1025.11 1025.26 1025.33 1025.33 1025.29 1025.23 1025.17
1012.68 1013.12 1013.56 1013.95 1014.31 1014.62 1014.92 1015.22 1015.55 1015.92 1016.32 1016.74 1017.15 1017.50 1017.74 1017.86 1017.83 1017.66 1017.40 1017.10 1016.83 1016.65 1016.63 1016.80 1017.18 1017.77 1018.52 1019.40 1020.34 1021.29 1022.21 1023.05 1023.77 1024.38 1024.85 1025.20 1025.44 1025.57 1025.62 1025.61 1025.57 1025.51 1025.44
1012.09 1012.54 1012.99 1013.40 1013.76 1014.07 1014.35 1014.63 1014.92 1015.24 1015.61 1016.01 1016.41 1016.77 1017.05 1017.23 1017.29 1017.23 1017.08 1016.90 1016.73 1016.65 1016.71 1016.95 1017.38 1018.00 1018.78 1019.67 1020.63 1021.60 1022.52 1023.37 1024.11 1024.72 1025.19 1025.54 1025.78 1025.91 1025.96 1025.95 1025.90 1025.83 1025.77
1011.51 1011.96 1012.41 1012.82 1013.18 1013.49 1013.75 1014.00 1014.25 1014.55 1014.88 1015.25 1015.64 1016.02 1016.33 1016.57 1016.70 1016.73 1016.68 1016.60 1016.53 1016.53 1016.65 1016.94 1017.41 1018.07 1018.87 1019.78 1020.76 1021.75 1022.70 1023.57 1024.33 1024.97 1025.47 1025.84 1026.10 1026.25 1026.31 1026.31 1026.27 1026.20 1026.13
1010.95 1011.39 1011.83 1012.23 1012.58 1012.86 1013.11 1013.33 1013.56 1013.83 1014.14 1014.51 1014.89 1015.28 1015.63 1015.91 1016.11 1016.20 1016.22 1016.21 1016.20 1016.26 1016.43 1016.76 1017.25 1017.93 1018.75 1019.68 1020.69 1021.70 1022.69 1023.60 1024.41 1025.09 1025.64 1026.06 1026.36 1026.55 1026.64 1026.67 1026.64 1026.58 1026.50
1010.41 1010.83 1011.25 1011.63 1011.95 1012.21 1012.44 1012.64 1012.86 1013.11 1013.42 1013.79 1014.19 1014.60 1014.98 1015.29 1015.53 1015.67 1015.73 1015.76 1015.78 1015.87 1016.06 1016.40 1016.91 1017.59 1018.42 1019.37 1020.40 1021.45 1022.48 1023.44 1024.30 1025.05 1025.66 1026.14 1026.50 1026.75 1026.90 1026.96 1026.96 1026.91 1026.84
1009.89 1010.29 1010.68 1011.02 1011.31 1011.55 1011.75 1011.94 1012.15 1012.41 1012.74 1013.12 1013.54 1013.97 1014.38 1014.73 1014.99 1015.15 1015.23 1015.27 1015.31 1015.39 1015.58 1015.92 1016.42 1017.10 1017.93 1018.89 1019.94 1021.02 1022.09 1023.10 1024.02 1024.83 1025.51 1026.07 1026.50 1026.81 1027.03 1027.15 1027.19 1027.18 1027.12
1009.39 1009.77 1010.12 1010.43 1010.68 1010.89 1011.07 1011.26 1011.47 1011.75 1012.10 1012.50 1012.96 1013.42 1013.85 1014.22 1014.49 1014.67 1014.76 1014.79 1014.82 1014.89 1015.07 1015.38 1015.87 1016.53 1017.36 1018.32 1019.38 1020.48 1021.57 1022.62 1023.59 1024.45 1025.20 1025.83 1026.33 1026.72 1027.00 1027.19 1027.30 1027.34 1027.32
1008.88 1009.24 1009.57 1009.84 1010.07 1010.25 1010.42 1010.60 1010.83 1011.12 1011.50 1011.94 1012.42 1012.92 1013.37 1013.76 1014.04 1014.22 1014.31 1014.34 1014.36 1014.42 1014.57 1014.87 1015.34 1015.99 1016.80 1017.76 1018.80 1019.91 1021.01 1022.08 1023.07 1023.97 1024.76 1025.44 1026.01 1026.47 1026.83 1027.09 1027.28 1027.39 1027.43
1008.33 1008.68 1008.99 1009.24 1009.45 1009.61 1009.78 1009.97 1010.21 1010.53 1010.93 1011.41 1011.92 1012.43 1012.91 1013.31 1013.61 1013.80 1013.89 1013.92 1013.95 1014.01 1014.16 1014.46 1014.91 1015.55 1016.34 1017.28 1018.30 1019.38 1020.47 1021.53 1022.52 1023.43 1024.25 1024.96 1025.58 1026.10 1026.54 1026.88 1027.15 1027.34 1027.47
Thickness
5632 5632 5631 5632 5632 5632 5632 5632 5632 5632 5632 5633 5634 5634 5635 5635 5636 5636 5635 5635 5635 5636 5636 5636 5636 5636 5636 5636 5636 5635 5635 5635 5635 5635 5635 5636 5635 5635 5635 5635 5635 5635 5635
5624 5624 5623 5623 5623 5624 5624 5624 5624 5625 5625 5625 5626 5626 5626 5626 5627 5627 5627 5626 5627 5627 5627 5628 5628 5628 5629 5629 5628 5628 5627 5627 5627 5627 5627 5627 5627 5627 5627 5627 5627 5627 5627
5616 5616 5615 5615 5615 5615 5616 5616 5616 5616 5616 5617 5617 5617 5617 5617 5617 5618 5618 5618 5618 5618 5618 5619 5619 5620 5620 5620 5620 5620 5619 5619 5619 5619 5619 5618 5618 5619 5619 5619 5619 5619 5619
5608 5607 5607 5606 5606 5607 5607 5607 5606 5607 5607 5607 5607 5608 5608 5608 5609 5609 5609 5609 5609 5609 5609 5609 5610 5610 5611 5611 5611 5611 5611 5610 5610 5610 5610 5610 5610 5610 5610 5610 5610 5611 5611
5600 5599 5598 5598 5598 5598 5597 5597 5597 5597 5596 5596 5597 5598 5598 5599 5599 5600 5600 5600 5600 5600 5599 5600 5600 5600 5601 5601 5601 5602 5602 5602 5601 5601 5601 5601 5601 5601 5601 5601 5601 5602 5602
5591 5591 5590 5589 5589 5588 5587 5587 5587 5587 5586 5586 5587 5588 5588 5589 5590 5590 5590 5591 5590 5590 5590 5590 5590 5590 5590 5591 5591 5591 5592 5592 5592 5592 5592 5592 5592 5592 5592 5592 5592 5592 5593
5582 5582 5581 5581 5580 5579 5578 5578 5577 5576 5575 5575 5575 5575 5578 5580 5581 5581 5581 5581 5580 5581 5580 5580 5580 5580 5580 5580 5580 5580 5581 5582 5583 5583 5582 5582 5583 5583 5582 5582 5583 5583 5584
5573 5573 5572 5572 5571 5570 5569 5568 5567 5565 5564 5564 5563 5562 5564 5567 5570 5572 5571 5571 5570 5570 5570 5570 5570 5570 5570 5570 5569 5569 5570 5571 5572 5573 5572 5572 5572 5573 5573 5573 5573 5574 5575
5564 5563 5563 5562 5561 5560 5559 5559 5558 5556 5554 5553 5553 5551 5551 5554 5556 5559 5560 5560 5560 5559 5559 5559 5559 5559 5559 5559 5559 5559 5559 5560 5561 5562 5562 5561 5561 5562 5562 5563 5564 5565 5565
5555 5554 5553 5552 5551 5550 5550 5549 5548 5547 5545 5543 5542 5542 5541 5542 5541 5543 5547 5548 5548 5548 5548 5548 5548 5548 5548 5548 5548 5547 5547 5548 5549 5550 5550 5550 5550 5551 5552 5553 5554 5555 5556
5546 5545 5544 5543 5542 5541 5540 5539 5538 5537 5536 5534 5533 5532 5532 5531 5531 5530 5532 5534 5536 5536 5536 5536 5537 5537 5537 5537 5537 5536 5536 5537 5537 5538 5538 5538 5539 5540 5541 5542 5544 5545 5547
5537 5536 5535 5534 5533 5532 5531 5530 5529 5527 5526 5525 5524 5523 5522 5520 5520 5520 5520 5521 5522 5524 5525 5525 5526 5526 5526 5526 5525 5525 5525 5525 5525 5526 5526 5526 5527 5528 5529 5531 5533 5535 5536
5529 5528 5527 5525 5524 5523 5522 5521 5519 5518 5517 5516 5515 5514 5513 5512 5512 5510 5509 5509 5510 5513 5514 5514 5515 5514 5514 5514 5514 5514 5514 5514 5514 5514 5514 5514 5515 5517 5518 5520 5522 5524 5526
5522 5520 5519 5517 5516 5514 5513 5511 5509 5508 5507 5506 5505 5504 5503 5502 5501 5500 5498 5497 5497 5501 5502 5503 5503 5504 5503 5503 5503 5503 5502 5503 5502 5502 5503 5504 5505 5506 5508 5510 5512 5514 5515
5514 5513 5511 5509 5507 5505 5503 5501 5499 5499 5497 5496 5495 5494 5493 5492 5491 5490 5488 5487 5486 5486 5491 5492 5492 5493 5492 5492 5492 5492 5492 5492 5493 5493 5493 5495 5496 5497 5499 5501 5502 5504 5506
5506 5504 5503 5501 5498 5496 5494 5492 5490 5489 5488 5487 5485 5484 5483 5482 5481 5480 5478 5478 5477 5476 5478 5483 5482 5482 5482 5482 5482 5482 5482 5483 5483 5484 5485 5486 5488 5489 5491 5492 5493 5495 5496
5497 5496 5494 5493 5490 5488 5486 5483 5482 5480 5479 5477 5476 5474 5473 5472 5471 5470 5469 5469 5468 5467 5468 5471 5472 5472 5472 5471 5472 5472 5473 5474 5475 5475 5476 5478 5480 5481 5482 5483 5485 5486 5488
5489 5487 5486 5484 5483 5480 5478 5476 5474 5472 5470 5469 5468 5465 5464 5462 5461 5461 5460 5459 5459 5459 5458 5460 5461 5461 5462 5462 5463 5464 5464 5465 5466 5467 5468 5470 5471 5473 5474 5476 5477 5478 5479
5481 5479 5478 5477 5475 5473 5470 5468 5466 5464 5463 5462 5460 5458 5456 5454 5453 5452 5452 5451 5450 5451 5450 5450 5451 5451 5452 5453 5454 5454 5455 5456 5457 5459 5460 5462 5464 5465 5467 5468 5469 5470 5471
5473 5472 5471 5469 5467 5465 5463 5461 5459 5457 5455 5453 5452 5450 5449 5447 5446 5445 5444 5443 5442 5441 5440 5440 5440 5442 5442 5444 5444 5444 5446 5447 5449 5451 5452 5454 5456 5458 5460 5461 5463 5464 5464
5465 5464 5463 5461 5459 5457 5456 5454 5452 5449 5447 5445 5444 5442 5442 5441 5440 5439 5438 5436 5435 5433 5432 5431 5431 5432 5433 5434 5434 5435 5436 5439 5441 5443 5444 5446 5448 5451 5453 5455 5456 5457 5457
5457 5455 5454 5453 5451 5450 5448 5447 5444 5441 5439 5437 5435 5435 5434 5434 5433 5432 5431 5430 5429 5426 5425 5424 5424 5424 5426 5426 5426 5427 5427 5429 5432 5434 5434 5438 5440 5443 5445 5447 5449 5450 5450
5448 5447 5445 5444 5442 5441 5440 5438 5436 5433 5430 5428 5427 5426 5426 5426 5425 5423 5423 5422 5421 5420 5420 5419 5418 5418 5419 5419 5419 5419 5420 5420 5422 5425 5426 5430 5432 5434 5437 5439 5441 5442 5442
5440 5439 5437 5435 5434 5432 5431 5430 5428 5425 5422 5421 5419 5418 5417 5417 5417 5416 5414 5414 5413 5412 5413 5413 5413 5413 5413 5413 5413 5413 5413 5413 5415 5416 5418 5420 5423 5425 5429 5431 5433 5434 5435
5432 5430 5429 5427 5425 5424 5423 5422 5421 5418 5415 5413 5412 5411 5410 5410 5411 5409 5408 5406 5406 5406 5406 5406 5406 5407 5407 5407 5407 5406 5405 5405 5407 5410 5410 5410 5414 5416 5420 5423 5425 5425 5426
5423 5422 5421 5419 5417 5416 5415 5415 5413 5411 5409 5407 5405 5404 5404 5403 5403 5403 5401 5400 5399 5400 5399 5399 5399 5399 5399 5400 5400 5399 5399 5398 5399 5402 5403 5402 5404 5405 5409 5414 5415 5416 5416